Theta_e
339 340 341 341 338 337 337 338 338 337 337 336 336 335 334 332 332 332 331 329 329 329 328 327 327 326 328
343 334 335 337 336 336 335 334 332 332 333 332 330 333 336 336 336 334 334 333 332 332 331 330 327 327 330
342 337 331 332 332 332 331 329 329 335 334 332 328 329 330 332 333 334 336 337 334 332 330 328 326 331 330
340 341 341 341 340 338 337 336 336 335 334 330 325 324 327 328 330 331 333 333 329 334 334 328 332 331 331
341 342 342 342 341 340 338 337 337 336 336 336 335 334 334 324 332 331 331 329 330 330 330 332 332 332 331
342 341 342 341 341 339 339 338 336 335 335 333 331 332 330 331 330 331 329 329 329 327 327 329 330 330 328
341 341 341 341 340 341 340 336 334 333 333 334 333 332 332 331 329 329 328 328 327 328 328 329 328 328 328
337 339 340 341 341 341 339 335 335 334 333 333 333 333 333 333 332 330 329 329 328 328 329 329 330 329 327
327 333 337 338 338 340 340 336 334 335 336 336 336 335 335 335 333 332 334 334 333 334 332 331 332 331 329
319 325 326 330 335 335 332 332 330 333 334 336 337 336 337 337 335 334 332 331 332 330 329 330 331 329 328
317 323 326 325 325 325 324 319 318 319 322 328 329 330 333 335 334 333 332 332 331 330 329 329 329 328 326
320 323 324 322 320 319 316 313 312 313 315 319 321 323 327 329 326 326 326 327 327 326 324 325 325 322 324
318 322 323 321 317 313 307 305 306 308 310 315 318 318 321 320 317 316 316 318 323 322 321 321 320 319 316
315 319 322 317 312 307 303 300 301 304 306 307 310 310 310 312 310 311 313 315 319 318 317 317 312 313 310
310 316 314 312 310 308 305 300 299 301 302 304 305 306 307 308 308 308 308 309 311 314 314 313 310 308 310
306 315 314 315 311 304 302 299 298 299 299 301 302 303 303 303 302 302 303 305 308 307 310 309 311 308 304
Wind_Speed
6 6 6 5 5 4 3 3 5 3 3 3 2 2 3 2 2 2 1 1 2 3 3 3 3 4 8
7 6 5 5 4 4 4 3 3 2 2 2 1 2 4 4 5 5 5 4 4 4 4 4 4 7 6
5 5 5 5 4 4 5 4 5 4 3 3 2 3 4 5 5 5 5 6 6 7 6 5 5 4 5
5 6 6 5 5 5 5 5 4 4 3 3 3 5 6 5 7 7 6 5 6 5 3 6 4 4 4
6 4 4 3 3 4 5 4 3 3 3 3 3 3 3 5 5 4 3 3 4 5 5 5 4 4 3
5 5 4 4 4 4 4 5 4 3 3 4 3 3 3 3 4 3 3 4 6 6 7 8 7 5 3
7 5 5 4 5 5 5 4 4 4 5 4 3 4 4 4 5 5 5 5 5 7 7 8 8 7 7
6 6 5 5 5 5 4 4 6 5 5 5 5 5 5 6 5 6 6 7 6 6 8 9 9 6 6
2 2 4 4 4 4 4 4 6 7 8 9 8 8 7 6 6 6 8 7 7 8 10 10 6 7 4
4 2 2 1 1 1 3 4 6 6 7 8 8 7 6 5 5 6 6 6 6 6 6 6 5 3 2
3 3 4 4 3 4 4 4 6 6 7 5 4 5 6 5 3 4 4 6 5 6 5 6 4 2 4
2 3 3 4 4 5 5 6 7 6 7 4 3 4 4 3 3 4 5 4 3 4 5 5 3 4 4
1 2 2 2 3 5 5 7 7 7 7 6 4 5 5 4 5 5 4 5 2 4 6 4 4 7 8
1 2 1 3 5 5 4 6 7 8 8 7 6 5 6 3 4 5 5 4 2 4 4 4 2 5 6
1 3 4 6 4 3 3 4 7 8 8 8 7 5 5 5 4 5 6 5 3 1 4 3 2 0 2
4 3 3 2 3 3 4 4 5 8 8 8 7 6 6 5 6 5 5 4 4 2 1 3 2 2 2
Wind_Direction
176 171 172 167 166 168 168 93 95 88 72 64 21 300 265 235 236 225 230 287 318 332 335 350 343 329 307
178 183 185 183 183 173 168 144 123 123 114 117 262 200 294 295 302 256 250 257 276 292 295 297 308 282 292
202 167 194 203 201 190 185 178 189 226 217 222 66 283 277 279 278 277 271 254 273 260 265 279 281 285 297
193 202 213 198 213 209 211 209 223 222 226 274 272 253 264 270 275 277 277 275 249 294 282 214 260 296 289
201 199 199 201 206 210 217 222 240 233 211 214 256 229 243 203 254 233 225 254 291 299 309 295 286 270 282
221 214 217 212 205 215 214 217 233 250 234 232 225 238 245 284 275 257 235 229 237 236 244 260 269 277 279
224 232 234 233 224 232 226 212 215 227 246 270 228 214 227 228 238 242 243 248 249 255 254 260 265 261 260
241 238 243 242 243 238 246 237 235 242 245 245 253 234 240 228 235 231 229 233 237 243 258 254 255 256 247
32 280 256 251 258 255 267 251 256 252 257 255 254 252 252 242 249 251 255 251 255 261 269 275 265 265 274
52 52 86 104 150 39 4 350 4 338 295 278 280 288 285 272 273 278 278 274 276 282 279 279 270 274 315
88 104 87 72 68 56 54 35 13 9 359 348 349 324 313 328 359 336 327 322 317 316 324 299 285 359 58
128 124 121 95 73 55 39 28 18 14 10 16 13 11 351 350 35 347 334 331 334 329 318 305 45 55 82
128 154 158 107 97 76 58 36 33 22 15 19 24 21 6 23 31 10 343 320 301 335 300 286 82 65 72
53 82 82 115 83 87 83 55 37 32 27 26 20 22 17 12 22 11 355 326 308 355 319 288 232 145 83
73 126 108 107 114 128 88 61 35 33 32 28 25 18 21 20 25 18 9 5 327 33 21 320 248 68 161
19 147 137 118 126 79 75 63 52 37 34 29 26 26 31 35 37 24 16 7 326 357 303 28 16 356 288